NOAA 16 DEB

Satellite information

Favourite Embed

Satellite Type and Status

DEBRISIN ORBIT

Key statistics

Satellite NOAA 16 DEB at a glance.

Uptime

9055

Days in orbit

Revolutions

≈ 14.4

Per day

Orbit

SSO

Sun Synchronous Orbit

Inclination

98.7

Latest

Satellite identification and parameters

Extended collection of information and parameters for NOAA 16 DEB.

Object identification

Identified? True

Debris? True

Object name: NOAA 16 DEB

International designator: 2000-055NZ

Object number (NORAD): 41660

Object ID (CCSDS): 41660

Country: UNITED STATES OF AMERICA (US)

Current information (Y/N): Y

RCS size: SMALL

Orbital parameters

Period: 100.316 minutes

Inclination: 98.735 deg

SMA: 7151.66 km

Apoapsis: 787.821 km

Periapsis: 759.229 km

RAAN: 287.1524 deg

Eccentricy: 0.001999

Argument of periapsis: 95.6835 deg

Mean anomaly: 264.663 deg

Mean motion: 14.35464517 rev/day

Mean motion (dot): 0.0000384 rev/day2

B* drag term: 0.001348 1/REarth

Two-line elements (TLE)

Creation date: July 6, 2025, 6:05 p.m.

Reference frame: TEME

Reference center: EARTH

Epoch: July 6, 2025, 1:42 a.m. UTC

TLE line 0: 0 NOAA 16 DEB

TLE line 1: 1 41660U 00055NZ 25187.07123141 .00003840 00000-0 13480-2 0 9992

TLE line 2: 2 41660 98.7350 287.1524 0019990 95.6835 264.6630 14.35464517477740

Live tracking on map

Real-time ground track for satellite NOAA 16 DEB.

In-orbit conjunctions

A list of the most updated potential collisions computed for object NOAA 16 DEB.

Target Orbit TCA Probability of collision Miss distance Type
IRIDIUM 63 LEO 2025-06-04 20:42:57 0.0003983316 100.0 (m) PAYLOAD
CZ-6A DEB LEO 2025-01-21 01:25:50 0.0003101544 372.0 (m) DEBRIS

Associated space launch

The NOAA K, L and M POES satellites begin the fifth generation of improved environmental monitoring in support of NOAA missions. The instrument payload has significant improvements and additions/deletions. The instrument changes have effected the spacecraft subsystems and data formats.

NOAA 16 DEB was lifted into orbit during the mission ‘Titan II SLV | NOAA 16’, on board a Titan II SLV space rocket.

The launch took place on Sept. 21, 2000, 10:22 a.m. from Space Launch Complex 4W.

For more information about the launch, click the button.

Launch to space Titan II SLV | NOAA 16
Titan II SLV | NOAA 16

Agency: N/A

Status: Launch Successful

Launch date: Sept. 21, 2000, 10:22 a.m. UTC

Rocket: Titan II SLV

Launch pad: Space Launch Complex 4W

Location: Vandenberg SFB, CA, USA

...

Latest news about this satellite

There are no fresh news available about this satellite. Check back as we update our databases every day.


Newsletter sign-up

Weekly statistics, charts and insights to help you stay on top of the space industry.